TimeEDT,TemperatureF,Dew PointF,Humidity,Sea Level PressureIn,VisibilityMPH,Wind Direction,Wind SpeedMPH,Gust SpeedMPH,PrecipitationIn,Events,Conditions,WindDirDegrees,DateUTC
12:51 AM,50.0,44.1,80,30.05,10.0,NE,3.5,-,N/A,,Clear,40,2013-09-23 04:51:00
1:51 AM,50.0,44.1,80,30.06,10.0,Calm,Calm,-,N/A,,Clear,0,2013-09-23 05:51:00
2:51 AM,48.9,43.0,80,30.06,10.0,NNE,3.5,-,N/A,,Clear,20,2013-09-23 06:51:00
3:51 AM,46.9,42.1,83,30.06,10.0,NNE,3.5,-,N/A,,Clear,20,2013-09-23 07:51:00
4:51 AM,46.9,42.1,83,30.07,10.0,Calm,Calm,-,N/A,,Clear,0,2013-09-23 08:51:00
5:51 AM,48.0,43.0,83,30.08,10.0,East,3.5,-,N/A,,Clear,80,2013-09-23 09:51:00
6:51 AM,48.0,43.0,83,30.09,10.0,East,4.6,-,N/A,,Clear,80,2013-09-23 10:51:00
7:51 AM,48.9,44.1,83,30.11,10.0,ENE,3.5,-,N/A,,Partly Cloudy,70,2013-09-23 11:51:00
8:51 AM,53.1,46.0,77,30.13,10.0,East,5.8,-,N/A,,Clear,90,2013-09-23 12:51:00
9:51 AM,57.0,44.1,62,30.14,10.0,East,6.9,-,N/A,,Clear,80,2013-09-23 13:51:00
10:51 AM,61.0,42.1,50,30.15,10.0,East,9.2,-,N/A,,Scattered Clouds,100,2013-09-23 14:51:00
11:51 AM,62.1,43.0,50,30.15,10.0,NE,9.2,-,N/A,,Scattered Clouds,50,2013-09-23 15:51:00
12:51 PM,63.0,42.1,46,30.14,10.0,ENE,8.1,-,N/A,,Mostly Cloudy,60,2013-09-23 16:51:00
1:51 PM,62.1,42.1,48,30.14,10.0,East,5.8,-,N/A,,Scattered Clouds,90,2013-09-23 17:51:00
2:51 PM,64.0,43.0,46,30.12,10.0,East,4.6,-,N/A,,Scattered Clouds,80,2013-09-23 18:51:00
3:51 PM,64.0,43.0,46,30.11,10.0,ENE,6.9,-,N/A,,Scattered Clouds,60,2013-09-23 19:51:00
4:51 PM,64.0,44.1,48,30.11,10.0,ENE,8.1,-,N/A,,Partly Cloudy,70,2013-09-23 20:51:00
5:51 PM,63.0,44.1,50,30.10,10.0,East,6.9,-,N/A,,Partly Cloudy,100,2013-09-23 21:51:00
6:51 PM,61.0,44.1,54,30.10,10.0,East,8.1,-,N/A,,Partly Cloudy,80,2013-09-23 22:51:00
7:51 PM,57.0,44.1,62,30.10,10.0,East,4.6,-,N/A,,Clear,80,2013-09-23 23:51:00
8:51 PM,55.0,45.0,69,30.11,10.0,ENE,4.6,-,N/A,,Clear,70,2013-09-24 00:51:00
9:51 PM,52.0,45.0,77,30.11,10.0,ENE,3.5,-,N/A,,Clear,70,2013-09-24 01:51:00
10:51 PM,51.1,45.0,80,30.12,10.0,East,3.5,-,N/A,,Clear,80,2013-09-24 02:51:00
11:51 PM,50.0,45.0,83,30.13,10.0,East,3.5,-,N/A,,Clear,80,2013-09-24 03:51:00